Beaver Island, MI

7:38 PM EDT on April 29, 2017 (GMT -0400)
Beaver Island

Weather History for KSJX - September, 2012

Change the Weather History Date:

Monday, September 17, 2012

  Actual Average Record
Temperature  
Mean Temperature 59 °F -  
Max Temperature 67 °F 65 °F 82 °F (1955)
Min Temperature 51 °F 50 °F 37 °F (1990)
Degree Days  
Heating Degree Days 6    
Growing Degree Days 9 (Base 50)    
Moisture  
Dew Point 54 °F    
Average Humidity 77    
Maximum Humidity 87    
Minimum Humidity 62    
Precipitation  
Precipitation 0.00 in - - ()
Sea Level Pressure  
Sea Level Pressure 29.80 in    
Wind  
Wind Speed 10 mph (West)    
Max Wind Speed 14 mph    
Max Gust Speed 23 mph    
Visibility 10 miles    
Events Rain    
Averages and records for this station are not official NWS values.
T = Trace of Precipitation, MM = Missing Value Source: NWS Daily Summary

Daily Weather History Graph

Daily Weather History Graph

Search for Another Location

Airport or City:

Trip Planner

Search our weather history database for the weather conditions in past years. The results will help you decide how hot, cold, wet, or windy it might be!

Date:

Astronomy

Sep. 17, 2012 Rise Set
Actual Time 7:23 AM EDT 7:48 PM EDT
Civil Twilight 6:53 AM EDT 8:18 PM EDT
Nautical Twilight 6:18 AM EDT 8:53 PM EDT
Astronomical Twilight 5:42 AM EDT 9:29 PM EDT
Moon 9:20 AM EDT (9/17) 8:19 PM EDT (9/17)
Length of Visible Light 13h 24m
Length of Day
12h 24m
Waxing Crescent, 3% of the Moon is Illuminated
Sep 17
Waxing Crescent
Sep 22
First Quarter
Sep 29
Full
Oct 8
Last Quarter
Oct 15
New

Hourly Weather History & Observations

Time (EDT) Temp. Dew Point Humidity Pressure Visibility Wind Dir Wind Speed Gust Speed Precip Events Conditions
12:15 AM 67.6 °F 55.0 °F 64% 29.88 in 10.0 mi SSW 13.8 mph 21.9 mph N/A   Clear
12:34 AM 67.5 °F 55.6 °F 66% 29.88 in 10.0 mi SSW 13.8 mph 19.6 mph N/A   Clear
12:55 AM 67.3 °F 56.1 °F 67% 29.87 in 10.0 mi SSW 13.8 mph 20.7 mph N/A   Clear
1:15 AM 67.1 °F 56.5 °F 69% 29.87 in 10.0 mi SSW 11.5 mph 21.9 mph N/A   Clear
1:35 AM 66.9 °F 57.2 °F 71% 29.87 in 10.0 mi SSW 9.2 mph 19.6 mph N/A   Clear
2:15 AM 67.1 °F 57.7 °F 72% 29.86 in 10.0 mi SSW 11.5 mph 18.4 mph N/A   Clear
2:35 AM 67.1 °F 58.1 °F 73% 29.86 in 10.0 mi SSW 13.8 mph 19.6 mph N/A   Clear
2:55 AM 67.1 °F 58.1 °F 73% 29.85 in 10.0 mi SSW 12.7 mph 18.4 mph N/A   Clear
3:14 AM 67.3 °F 58.6 °F 74% 29.84 in 10.0 mi SSW 11.5 mph 20.7 mph N/A   Clear
3:35 AM 67.3 °F 58.6 °F 74% 29.83 in 10.0 mi SW 10.4 mph 16.1 mph N/A   Scattered Clouds
3:55 AM 67.6 °F 58.6 °F 73% 29.83 in 10.0 mi SSW 13.8 mph 18.4 mph N/A   Mostly Cloudy
4:14 AM 67.6 °F 58.5 °F 72% 29.83 in 10.0 mi SSW 11.5 mph 17.3 mph N/A   Overcast
4:35 AM 67.6 °F 58.1 °F 71% 29.83 in 10.0 mi SSW 10.4 mph - N/A   Overcast
5:15 AM 67.3 °F 56.7 °F 69% 29.80 in 10.0 mi SSW 12.7 mph 17.3 mph N/A   Clear
5:55 AM 66.6 °F 55.8 °F 68% 29.79 in 10.0 mi SW 9.2 mph - N/A   Clear
6:15 AM 67.1 °F 56.7 °F 69% 29.80 in 10.0 mi SW 9.2 mph - N/A   Clear
6:35 AM 66.6 °F 57.2 °F 72% 29.80 in 10.0 mi SSW 9.2 mph 16.1 mph N/A   Scattered Clouds
6:55 AM 66.6 °F 55.0 °F 66% 29.81 in 10.0 mi WSW 9.2 mph - N/A   Scattered Clouds
7:15 AM 66.4 °F 54.0 °F 64% 29.81 in 10.0 mi WSW 11.5 mph - N/A   Mostly Cloudy
7:35 AM 66.2 °F 52.9 °F 62% 29.81 in 10.0 mi WSW 9.2 mph - N/A   Scattered Clouds
8:15 AM 65.7 °F 53.4 °F 65% 29.81 in 10.0 mi WSW 11.5 mph 16.1 mph N/A   Scattered Clouds
8:35 AM 65.7 °F 54.0 °F 66% 29.80 in 10.0 mi WSW 9.2 mph - N/A   Scattered Clouds
8:55 AM 66.6 °F 54.7 °F 66% 29.79 in 10.0 mi SW 6.9 mph - N/A   Mostly Cloudy
9:15 AM 65.8 °F 55.4 °F 69% 29.79 in 10.0 mi SW 6.9 mph - N/A Rain Rain
9:35 AM 64.2 °F 56.3 °F 75% 29.79 in 10.0 mi WSW 6.9 mph - N/A   Mostly Cloudy
9:55 AM 64.4 °F 55.9 °F 74% 29.80 in 10.0 mi SW 8.1 mph - N/A   Mostly Cloudy
10:14 AM 63.3 °F 55.4 °F 75% 29.80 in 10.0 mi SW 9.2 mph - N/A Rain Rain
10:33 AM 62.6 °F 57.6 °F 84% 29.81 in 7.0 mi SW 6.9 mph - N/A Rain Heavy Rain
10:55 AM 61.2 °F 57.2 °F 87% 29.80 in 10.0 mi Calm Calm - N/A   Overcast
11:15 AM 62.2 °F 57.9 °F 86% 29.80 in 10.0 mi NW 4.6 mph - N/A   Overcast
11:35 AM 62.2 °F 57.4 °F 84% 29.82 in 10.0 mi WNW 6.9 mph - N/A   Overcast
11:55 AM 62.1 °F 57.6 °F 85% 29.81 in 10.0 mi WNW 4.6 mph - N/A   Overcast
12:15 PM 62.6 °F 57.7 °F 84% 29.81 in 10.0 mi WNW 3.5 mph - N/A   Overcast
12:35 PM 63.3 °F 57.9 °F 83% 29.81 in 10.0 mi WNW 3.5 mph - N/A   Overcast
12:55 PM 65.1 °F 57.9 °F 77% 29.80 in 10.0 mi NW 9.2 mph - N/A   Overcast
1:15 PM 65.7 °F 56.5 °F 72% 29.79 in 10.0 mi WNW 9.2 mph - N/A   Overcast
1:35 PM 67.1 °F 55.0 °F 65% 29.78 in 10.0 mi NW 6.9 mph - N/A   Mostly Cloudy
1:55 PM 65.3 °F 52.2 °F 62% 29.78 in 10.0 mi West 4.6 mph - N/A   Mostly Cloudy
2:15 PM 64.0 °F 52.3 °F 66% 29.78 in 10.0 mi West 6.9 mph - N/A Rain Light Rain
2:35 PM 63.1 °F 53.2 °F 70% 29.78 in 10.0 mi West 6.9 mph - N/A   Overcast
2:55 PM 62.6 °F 54.0 °F 73% 29.78 in 10.0 mi West 9.2 mph - N/A   Overcast
3:15 PM 60.1 °F 54.9 °F 83% 29.80 in 7.0 mi West 8.1 mph - N/A Rain Rain
3:34 PM 60.4 °F 56.3 °F 86% 29.79 in 10.0 mi WSW 4.6 mph - N/A Rain Light Rain
3:55 PM 60.8 °F 56.3 °F 85% 29.77 in 10.0 mi West 4.6 mph - N/A   Overcast
4:15 PM 60.8 °F 55.0 °F 81% 29.76 in 10.0 mi West 6.9 mph - N/A   Overcast
4:35 PM 60.8 °F 55.0 °F 81% 29.75 in 10.0 mi West 8.1 mph - N/A   Overcast
4:55 PM 60.1 °F 55.4 °F 85% 29.75 in 10.0 mi WNW 5.8 mph - N/A   Overcast
5:15 PM 59.0 °F 54.5 °F 85% 29.76 in 10.0 mi NNW 9.2 mph - N/A   Overcast
5:35 PM 58.1 °F 53.2 °F 84% 29.78 in 10.0 mi North 4.6 mph - N/A   Overcast
5:55 PM 57.4 °F 52.7 °F 84% 29.77 in 10.0 mi North 4.6 mph - N/A   Overcast
6:15 PM 57.4 °F 52.2 °F 83% 29.77 in 10.0 mi NNW 8.1 mph - N/A   Overcast
6:35 PM 57.2 °F 52.3 °F 84% 29.77 in 10.0 mi North 9.2 mph - N/A   Overcast
6:55 PM 56.8 °F 51.4 °F 82% 29.77 in 10.0 mi North 9.2 mph - N/A   Overcast
7:14 PM 56.8 °F 52.2 °F 84% 29.78 in 10.0 mi North 11.5 mph 19.6 mph N/A Rain Light Rain
7:35 PM 55.0 °F 49.5 °F 81% 29.78 in 10.0 mi North 12.7 mph 18.4 mph N/A   Overcast
7:55 PM 54.9 °F 48.0 °F 78% 29.78 in 10.0 mi NNW 12.7 mph 23.0 mph N/A   Overcast
8:15 PM 53.1 °F 47.1 °F 80% 29.79 in 10.0 mi NNW 9.2 mph - N/A Rain Rain
8:35 PM 52.3 °F 47.8 °F 85% 29.79 in 7.0 mi North 8.1 mph - N/A Rain Rain
8:55 PM 51.8 °F 47.1 °F 84% 29.79 in 10.0 mi North 8.1 mph - N/A Rain Light Rain
9:15 PM 52.0 °F 47.5 °F 85% 29.78 in 10.0 mi North 10.4 mph 19.6 mph N/A Rain Light Rain
9:35 PM 52.5 °F 47.8 °F 84% 29.79 in 10.0 mi North 8.1 mph - N/A Rain Light Rain
9:54 PM 52.7 °F 48.4 °F 85% 29.77 in 10.0 mi North 5.8 mph - N/A Rain Light Rain
10:15 PM 52.9 °F 48.4 °F 85% 29.78 in 10.0 mi North 8.1 mph - N/A Rain Light Rain
10:35 PM 52.3 °F 47.8 °F 85% 29.78 in 10.0 mi North 5.8 mph - N/A Rain Light Rain
10:54 PM 52.0 °F 47.3 °F 84% 29.77 in 10.0 mi North 5.8 mph - N/A Rain Rain
11:15 PM 51.8 °F 47.8 °F 86% 29.76 in 10.0 mi North 3.5 mph - N/A Rain Light Rain
11:35 PM 52.0 °F 47.5 °F 85% 29.77 in 10.0 mi North 4.6 mph - N/A Rain Light Rain
11:55 PM 52.0 °F 47.3 °F 84% 29.78 in 10.0 mi NNW 3.5 mph - N/A Rain Light Rain